FW7132 Weather Reports


Display with metric or nautical units.
time (UTC)temp
F
wind
direction
speed
MPH
gust
MPH
rain 1hr
in
rain 24hr
in
rain mn
in
humidity
%
barometer
mb
20260904015739 91 165 7.0 13.0 0.00 0.00 0.00 42 1010.4
20260904015239 92 216 6.0 13.0 0.00 0.00 0.00 42 1010.3
20260904014738 92 231 5.0 11.0 0.00 0.00 0.00 41 1010.1
20260904014239 95 201 5.0 11.0 0.00 0.00 0.00 37 1010.2
20260904013738 95 240 5.0 5.0 0.00 0.00 0.00 34 1009.8
20260904013238 95 224 3.0 5.0 0.00 0.00 0.00 33 1009.8
20260904012738 95 167 1.0 5.0 0.00 0.00 0.00 33 1009.7
20260904012238 96 150 2.0 5.0 0.00 0.00 0.00 33 1009.8
20260904011738 96 143 4.0 5.0 0.00 0.00 0.00 32 1009.9
20260904011238 96 181 1.0 4.0 0.00 0.00 0.00 32 1009.9
20260904010737 97 219 2.0 2.0 0.00 0.00 0.00 32 1009.8
20260904010238 97 162 1.0 2.0 0.00 0.00 0.00 32 1009.9
20260904004737 98 236 0.0 4.0 0.00 0.00 0.00 30 1009.9
20260904004237 99 232 0.0 4.0 0.00 0.00 0.00 30 1009.9
20260904003737 99 205 2.0 4.0 0.00 0.00 0.00 30 1009.8
20260904003236 99 216 0.0 4.0 0.00 0.00 0.00 30 1009.8
20260904002236 99 153 1.0 6.0 0.00 0.00 0.00 30 1009.6
20260904000236 99 203 1.0 6.0 0.00 0.00 0.00 30 1009.9
20260903235735 99 277 0.0 6.0 0.00 0.00 0.00 30 1009.9
20260903234735 100 294 1.0 4.0 0.00 0.00 0.00 29 1010.1
20260903234235 100 285 2.0 8.0 0.00 0.00 0.00 29 1010.2
20260903233735 100 296 0.0 8.0 0.00 0.00 0.00 29 1010.2
20260903233235 99 347 1.0 4.0 0.00 0.00 0.00 29 1010.3
20260903232735 100 290 0.0 3.0 0.00 0.00 0.00 28 1010.2
20260903231734 100 290 0.0 5.0 0.00 0.00 0.00 28 1010.3
20260903231234 100 246 1.0 7.0 0.00 0.00 0.00 28 1010.3
20260903230734 100 70 0.0 8.0 0.00 0.00 0.00 28 1010.4
20260903230234 100 169 3.0 10.0 0.00 0.00 0.00 28 1010.4
20260903225734 100 232 2.0 10.0 0.00 0.00 0.00 28 1010.5
20260903225233 99 225 6.0 7.0 0.00 0.00 0.00 28 1010.5
20260903224733 98 166 0.0 5.0 0.00 0.00 0.00 29 1010.6
20260903224233 99 113 1.0 6.0 0.00 0.00 0.00 29 1010.6
20260903223733 99 84 2.0 6.0 0.00 0.00 0.00 29 1010.7
20260903223233 99 61 0.0 7.0 0.00 0.00 0.00 29 1010.8
20260903222733 99 184 6.0 7.0 0.00 0.00 0.00 29 1010.8
20260903222233 99 186 1.0 7.0 0.00 0.00 0.00 29 1010.9
20260903221733 99 285 0.0 7.0 0.00 0.00 0.00 30 1011.0
20260903220732 99 289 1.0 5.0 0.00 0.00 0.00 29 1011.2
20260903220232 99 323 0.0 5.0 0.00 0.00 0.00 30 1011.3
20260903211231 98 225 1.0 10.0 0.00 0.00 0.00 33 1012.2
20260903210730 98 174 10.0 10.0 0.00 0.00 0.00 32 1012.3
20260903210231 98 217 3.0 12.0 0.00 0.00 0.00 35 1012.4
20260903205730 98 191 5.0 12.0 0.00 0.00 0.00 35 1012.4
20260903204230 98 219 1.0 8.0 0.00 0.00 0.00 34 1012.7
20260903203730 99 206 5.0 10.0 0.00 0.00 0.00 34 1012.8
20260903202730 98 151 3.0 9.0 0.00 0.00 0.00 34 1012.7
20260903201729 97 204 2.0 9.0 0.00 0.00 0.00 36 1012.9
20260903201229 97 102 2.0 8.0 0.00 0.00 0.00 35 1012.9
20260903200729 97 191 3.0 11.0 0.00 0.00 0.00 35 1012.9
20260903200229 98 215 3.0 11.0 0.00 0.00 0.00 35 1013.1
20260903195228 97 128 3.0 8.0 0.00 0.00 0.00 36 1013.0
20260903194728 96 266 1.0 7.0 0.00 0.00 0.00 37 1013.0
20260903194228 95 252 2.0 7.0 0.00 0.00 0.00 39 1013.1
20260903193728 96 137 6.0 8.0 0.00 0.00 0.00 38 1013.1
20260903193228 96 190 0.0 8.0 0.00 0.00 0.00 37 1013.4
20260903192228 96 134 4.0 9.0 0.00 0.00 0.00 38 1013.4
20260903191727 96 215 1.0 7.0 0.00 0.00 0.00 39 1013.5
20260903190727 95 229 2.0 10.0 0.00 0.00 0.00 40 1013.7
20260903190227 95 131 5.0 6.0 0.00 0.00 0.00 40 1013.8
20260903185727 95 100 1.0 7.0 0.00 0.00 0.00 39 1013.9
20260903185227 95 220 4.0 7.0 0.00 0.00 0.00 39 1014.2
20260903184727 95 134 3.0 11.0 0.00 0.00 0.00 39 1014.3
20260903184226 94 221 3.0 11.0 0.00 0.00 0.00 39 1014.2
20260903183726 94 139 1.0 8.0 0.00 0.00 0.00 40 1014.3
20260903183226 93 181 1.0 8.0 0.00 0.00 0.00 42 1014.4
20260903182726 93 118 1.0 9.0 0.00 0.00 0.00 42 1014.5
20260903182226 93 85 2.0 9.0 0.00 0.00 0.00 42 1014.5
20260903181726 93 212 4.0 8.0 0.00 0.00 0.00 42 1014.6
20260903181226 93 148 0.0 5.0 0.00 0.00 0.00 42 1014.6
20260903180725 93 66 1.0 7.0 0.00 0.00 0.00 42 1014.8
20260903180225 93 113 4.0 7.0 0.00 0.00 0.00 42 1014.7
20260903175755 93 220 3.0 6.0 0.00 0.00 0.00 43 1014.8
20260903175225 92 150 2.0 5.0 0.00 0.00 0.00 45 1014.8
20260903174725 92 104 2.0 5.0 0.00 0.00 0.00 45 1014.8
20260903173224 91 141 4.0 6.0 0.00 0.00 0.00 46 1015.0
20260903172754 91 117 5.0 7.0 0.00 0.00 0.00 47 1015.0
20260903172254 91 130 5.0 7.0 0.00 0.00 0.00 48 1015.1
20260903171754 90 118 6.0 7.0 0.00 0.00 0.00 47 1015.0
20260903171254 91 122 3.0 7.0 0.00 0.00 0.00 47 1014.9
20260903170754 91 134 1.0 9.0 0.00 0.00 0.00 48 1015.0
20260903170253 90 223 1.0 9.0 0.00 0.00 0.00 48 1015.0
20260903165724 90 134 1.0 6.0 0.00 0.00 0.00 48 1014.9
20260903165253 90 164 4.0 6.0 0.00 0.00 0.00 49 1014.9
20260903164723 90 158 1.0 6.0 0.00 0.00 0.00 50 1015.0
20260903163753 89 101 6.0 7.0 0.00 0.00 0.00 50 1015.0
20260903163252 89 121 4.0 6.0 0.00 0.00 0.00 51 1015.1
20260903162752 89 209 2.0 5.0 0.00 0.00 0.00 52 1015.1
20260903162252 89 88 3.0 5.0 0.00 0.00 0.00 52 1015.1
20260903161752 88 134 3.0 5.0 0.00 0.00 0.00 53 1015.1
20260903160752 88 72 2.0 7.0 0.00 0.00 0.00 53 1015.0
20260903160252 88 117 2.0 5.0 0.00 0.00 0.00 54 1015.0
20260903155751 87 173 3.0 5.0 0.00 0.00 0.00 54 1015.0
20260903155251 87 98 0.0 5.0 0.00 0.00 0.00 54 1015.1
20260903154751 87 122 3.0 6.0 0.00 0.00 0.00 55 1015.3
20260903154251 87 101 2.0 8.0 0.00 0.00 0.00 56 1015.3
20260903153751 87 139 3.0 8.0 0.00 0.00 0.00 56 1015.2
20260903153251 87 155 5.0 6.0 0.00 0.00 0.00 56 1015.2
20260903152751 87 161 4.0 8.0 0.00 0.00 0.00 56 1015.3
20260903152250 86 165 1.0 8.0 0.00 0.00 0.00 57 1015.2
20260903151750 87 125 6.0 7.0 0.00 0.00 0.00 56 1015.2
20260903151251 87 153 0.0 7.0 0.00 0.00 0.00 57 1015.3
20260903150750 86 91 7.0 7.0 0.00 0.00 0.00 57 1015.1
20260903150250 86 107 6.0 6.0 0.00 0.00 0.00 57 1015.1
20260903145250 86 139 2.0 7.0 0.00 0.00 0.00 58 1015.3
20260903144750 85 128 3.0 7.0 0.00 0.00 0.00 60 1015.3
20260903144250 85 129 2.0 7.0 0.00 0.00 0.00 59 1015.2
20260903143749 85 121 2.0 7.0 0.00 0.00 0.00 60 1015.2
20260903143249 85 104 2.0 7.0 0.00 0.00 0.00 60 1015.3
20260903142750 84 161 4.0 7.0 0.00 0.00 0.00 61 1015.1
20260903142249 84 101 3.0 7.0 0.00 0.00 0.00 61 1015.2
20260903141749 84 120 1.0 5.0 0.00 0.00 0.00 62 1015.2
20260903140749 83 138 0.0 5.0 0.00 0.00 0.00 63 1015.0
20260903140249 83 127 3.0 5.0 0.00 0.00 0.00 64 1015.0
20260903134248 81 123 2.0 3.0 0.00 0.00 0.00 66 1014.8
20260903133748 81 115 2.0 3.0 0.00 0.00 0.00 66 1014.7
20260903133247 81 102 1.0 3.0 0.00 0.00 0.00 66 1014.6
20260903132747 81 130 0.0 3.0 0.00 0.00 0.00 66 1014.6
20260903132247 80 133 2.0 3.0 0.00 0.00 0.00 67 1014.5
20260903131747 80 98 1.0 2.0 0.00 0.00 0.00 67 1014.4
20260903124746 80 158 0.0 0.0 0.00 0.00 0.00 65 1014.2
20260903124246 81 158 0.0 0.0 0.00 0.00 0.00 64 1014.3
20260903123746 81 158 0.0 2.0 0.00 0.00 0.00 64 1014.4
20260903123246 81 158 0.0 3.0 0.00 0.00 0.00 64 1014.2
20260903122746 81 108 0.0 3.0 0.00 0.00 0.00 64 1014.1
20260903122246 81 134 0.0 2.0 0.00 0.00 0.00 63 1014.0
20260903121745 81 111 1.0 4.0 0.00 0.00 0.00 63 1014.0
20260903121245 81 116 1.0 4.0 0.00 0.00 0.00 63 1013.8
20260903120245 81 112 2.0 5.0 0.00 0.00 0.00 62 1013.8
20260903115745 82 108 0.0 4.0 0.00 0.00 0.00 62 1013.8
20260903115244 82 132 0.0 5.0 0.00 0.00 0.00 62 1013.9
20260903114744 82 108 1.0 5.0 0.00 0.00 0.00 62 1013.9
20260903114244 82 108 4.0 5.0 0.00 0.00 0.00 62 1013.9
20260903113744 82 111 3.0 5.0 0.00 0.00 0.00 62 1013.9
20260903113244 82 102 2.0 5.0 0.00 0.00 0.00 62 1013.8
20260903112744 82 119 3.0 7.0 0.00 0.00 0.00 62 1013.8
20260903112243 82 98 4.0 7.0 0.00 0.00 0.00 62 1013.7
20260903111744 82 127 3.0 6.0 0.00 0.00 0.00 62 1013.8
20260903111244 82 167 3.0 5.0 0.00 0.00 0.00 63 1013.8
20260903110743 82 106 1.0 3.0 0.00 0.00 0.00 62 1013.7
20260903105743 82 116 0.0 6.0 0.00 0.00 0.00 62 1013.7
20260903105243 82 99 3.0 6.0 0.00 0.00 0.00 61 1013.8
20260903104742 82 91 3.0 6.0 0.00 0.00 0.00 62 1013.7
20260903104243 82 118 1.0 5.0 0.00 0.00 0.00 61 1013.7
20260903103742 82 115 0.0 5.0 0.00 0.00 0.00 61 1013.7
20260903103243 82 92 1.0 5.0 0.00 0.00 0.00 60 1013.7
20260903102242 83 100 2.0 4.0 0.00 0.00 0.00 59 1013.8
20260903101742 83 102 1.0 4.0 0.00 0.00 0.00 59 1013.8
20260903101242 83 149 3.0 5.0 0.00 0.00 0.00 59 1013.9
20260903100742 83 115 2.0 5.0 0.00 0.00 0.00 58 1013.8
20260903100241 83 115 2.0 5.0 0.00 0.00 0.00 58 1013.9
20260903095741 83 150 3.0 5.0 0.00 0.00 0.00 58 1013.7
20260903090740 85 82 4.0 6.0 0.00 0.00 0.00 54 1013.9
20260903090239 84 135 4.0 5.0 0.00 0.00 0.00 54 1013.9
20260903085240 85 118 1.0 4.0 0.00 0.00 0.00 54 1013.7
20260903084239 85 103 2.0 5.0 0.00 0.00 0.00 53 1013.8
20260903083739 85 89 3.0 10.0 0.00 0.00 0.00 53 1013.7
20260903083239 85 103 3.0 10.0 0.00 0.00 0.00 53 1013.8
20260903082739 85 110 2.0 5.0 0.00 0.00 0.00 53 1013.8
20260903082239 85 73 4.0 4.0 0.00 0.00 0.00 53 1013.9
20260903081738 85 101 1.0 4.0 0.00 0.00 0.00 54 1013.9
20260903081238 85 112 2.0 6.0 0.00 0.00 0.00 54 1014.0
20260903080738 85 81 2.0 6.0 0.00 0.00 0.00 53 1014.0
20260903080238 85 115 3.0 6.0 0.00 0.00 0.00 53 1013.9
20260903075738 85 108 3.0 6.0 0.00 0.00 0.00 53 1013.8
20260903075238 85 103 3.0 4.0 0.00 0.00 0.00 52 1013.9
20260903074738 85 129 0.0 2.0 0.00 0.00 0.00 52 1013.9
20260903074237 84 153 1.0 2.0 0.00 0.00 0.00 53 1013.8
20260903073238 84 118 0.0 1.0 0.00 0.00 0.00 54 1013.6
20260903072737 84 118 0.0 0.0 0.00 0.00 0.00 55 1013.7
20260903072237 84 118 0.0 0.0 0.00 0.00 0.00 54 1013.6
20260903071737 84 118 0.0 0.0 0.00 0.00 0.00 54 1013.6
20260903070736 85 117 0.0 0.0 0.00 0.00 0.00 53 1013.6
20260903070236 84 118 0.0 0.0 0.00 0.00 0.00 52 1013.5
20260903065236 85 118 0.0 1.0 0.00 0.00 0.00 52 1013.5
20260903064736 85 118 0.0 1.0 0.00 0.00 0.00 51 1013.5
20260903063235 85 118 0.0 1.0 0.00 0.00 0.00 51 1013.4
20260903061735 86 120 0.0 0.0 0.00 0.00 0.00 50 1013.5
20260903061235 86 120 0.0 0.0 0.00 0.00 0.00 50 1013.5
20260903060734 86 120 0.0 1.0 0.00 0.00 0.00 48 1013.4
20260903060235 86 120 0.0 1.0 0.00 0.00 0.00 48 1013.3
20260903055735 86 160 0.0 3.0 0.00 0.00 0.00 46 1013.4
20260903055234 86 160 0.0 3.0 0.00 0.00 0.00 46 1013.2
20260903054734 86 122 0.0 1.0 0.00 0.00 0.00 48 1013.2
20260903054234 85 130 1.0 1.0 0.00 0.00 0.00 51 1013.2
20260903053734 85 20 0.0 0.0 0.00 0.00 0.00 50 1013.1
20260903053234 86 20 0.0 0.0 0.00 0.00 0.00 50 1013.1
20260903052733 86 20 0.0 0.0 0.00 0.00 0.00 49 1013.1
20260903052233 86 20 0.0 0.0 0.00 0.00 0.00 47 1013.1
20260903051733 86 20 0.0 0.0 0.00 0.00 0.00 49 1013.1
20260903051233 87 20 0.0 0.0 0.00 0.00 0.00 47 1013.2
20260903050233 87 20 0.0 0.0 0.00 0.00 0.00 47 1013.2
20260903045733 87 20 0.0 0.0 0.00 0.00 0.00 46 1013.2
20260903044732 88 20 0.0 0.0 0.00 0.00 0.00 43 1013.0
20260903044232 89 20 0.0 1.0 0.00 0.00 0.00 42 1013.1
20260903043732 89 20 0.0 1.0 0.00 0.00 0.00 41 1013.0
20260903043232 89 20 0.0 1.0 0.00 0.00 0.00 42 1013.0
20260903042732 89 20 0.0 1.0 0.00 0.00 0.00 42 1013.0
20260903042232 89 20 0.0 1.0 0.00 0.00 0.00 43 1013.0
20260903041731 88 20 0.0 1.0 0.00 0.00 0.00 44 1012.9
20260903041231 88 325 0.0 0.0 0.00 0.00 0.00 45 1013.0
20260903040731 89 325 0.0 0.0 0.00 0.00 0.00 44 1013.1
20260903035231 90 325 0.0 0.0 0.00 0.00 0.00 40 1012.9
20260903034731 90 325 0.0 0.0 0.00 0.00 0.00 40 1012.8
20260903034230 90 325 0.0 1.0 0.00 0.00 0.00 40 1012.7
20260903033230 90 338 0.0 1.0 0.00 0.00 0.00 40 1012.7
20260903032730 91 339 0.0 1.0 0.00 0.00 0.00 40 1012.7
20260903032230 91 337 0.0 1.0 0.00 0.00 0.00 39 1012.8
20260903031730 91 360 0.0 1.0 0.00 0.00 0.00 39 1012.7
20260903031229 91 293 0.0 0.0 0.00 0.00 0.00 40 1012.7
20260903030729 91 293 0.0 0.0 0.00 0.00 0.00 39 1012.7
20260903030229 91 293 0.0 1.0 0.00 0.00 0.00 39 1012.6
20260903025229 92 293 0.0 3.0 0.00 0.00 0.00 38 1012.4
20260903024729 92 293 0.0 3.0 0.00 0.00 0.00 37 1012.4
20260903024229 92 257 0.0 0.0 0.00 0.00 0.00 37 1012.3
20260903023728 92 257 0.0 0.0 0.00 0.00 0.00 38 1012.2
20260903023229 92 257 0.0 0.0 0.00 0.00 0.00 36 1012.3
20260903022728 93 257 0.0 0.0 0.00 0.00 0.00 35 1012.2
20260903022228 93 257 0.0 0.0 0.00 0.00 0.00 34 1012.2
20260903021728 94 257 0.0 1.0 0.00 0.00 0.00 34 1012.3
20260903021228 94 257 0.0 2.0 0.00 0.00 0.00 33 1012.2
20260903020728 94 291 1.0 2.0 0.00 0.00 0.00 33 1012.1
20260903020228 94 270 1.0 1.0 0.00 0.00 0.00 33 1012.1